Current weather by "City, St" or "zip code"  
 

Current Conditions: Muscle Shoals, North West Alabama Regional Airport, AL

Fair


70.0 F

Last Updated on Sep 18 2020, 12:53 am CDT
Humidity: 71%
Wind Speed: N 6.9 mph
Barometer 29.93 in
Dewpoint: 60.1 F
Visibility: 10.00 mi
Precip: --
Heat Index: NA
Wind Chill: NA
Current conditions at:

Muscle Shoals, North West Alabama Regional Airport, AL (KMSL)

Lat: 34.74389 Lon: 87.59944

Local Radar Image active severe weather and emergency alerts image image weather storm and storm spotter reports image weather observation monitoring service image
Local
Radar
Active
Alerts
Storm Reports Obs
Monitoring

Sign-up For Email & Text Message Weather Alert Notification Services



Advertise Here

Observation History for Muscle Shoals, North West Alabama Regional Airport, AL


Time Wind
(mph)
Vis
(mi)
Weather Precip (in) Temperature (F) Relative
Humidity
Wind
Chill
(F)
Heat
Index
(F)
Pressure
Air Dwpt altimeter
(in)
sea level
(mb)
Rmks
12:53 am CDT N 6.9 10.00 Fair -- 70.0 60.1 71% NA NA 29.93 1013.0
11:53 pm CDT N 3.5 10.00 Fair -- 71.0 61.0 71% NA NA 29.94 1013.1
10:53 pm CDT N 5.8 10.00 Fair -- 73.0 61.0 66% NA NA 29.94 1013.0
9:53 pm CDT N 5.8 10.00 Fair -- 74.0 62.1 67% NA NA 29.93 1012.9
8:53 pm CDT N 8.1 10.00 Fair -- 75.0 63.0 66% NA NA 29.92 1012.5
7:53 pm CDT N 8.1 10.00 Fair -- 76.0 66.0 72% NA NA 29.90 1011.9
6:53 pm CDT N 6.9 10.00 Fair -- 79.0 64.9 62% NA NA 29.88 1011.3
5:53 pm CDT N 8.1 10.00 Fair -- 82.0 64.9 56% NA 84 29.87 1010.8
4:53 pm CDT N 10.4 G 17.3 10.00 Fair -- 84.0 64.0 51% NA 85 29.85 1010.2
3:53 pm CDT N 9.2 10.00 Fair -- 88.0 64.9 46% NA 90 29.85 1009.9
2:53 pm CDT N 9.2 10.00 Fair -- 87.0 64.9 48% NA 89 29.86 1010.3
1:53 pm CDT N 9.2 G 17.3 10.00 Mostly Cloudy -- 85.0 66.0 53% NA 87 29.87 1010.8
12:53 pm CDT N 9.2 G 19.6 10.00 Mostly Cloudy -- 86.0 66.9 53% NA 89 29.88 1011.2
11:53 am CDT N 11.5 G 20.7 10.00 A Few Clouds -- 87.0 66.0 50% NA 89 29.88 1011.1
10:53 am CDT NE 13.8 G 21.9 10.00 Fair -- 85.0 66.0 53% NA 87 29.90 1011.6
9:53 am CDT N 9.2 G 16.1 10.00 Fair -- 83.0 66.9 59% NA 86 29.90 1011.7
8:53 am CDT NE 10.4 G 19.6 10.00 Fair -- 80.0 68.0 67% NA 83 29.88 1011.3
7:53 am CDT 6.9 10.00 Overcast -- 77.0 68.0 74% NA NA 29.87 1010.9
6:53 am CDT N 8.1 10.00 Overcast -- 75.0 68.0 79% NA NA 29.86 1010.4
5:53 am CDT NE 6.9 10.00 Overcast -- 75.0 68.0 79% NA NA 29.85 1010.1
4:53 am CDT N 5.8 10.00 Mostly Cloudy -- 74.0 68.0 82% NA NA 29.85 1010.2
3:53 am CDT NE 6.9 10.00 Overcast -- 75.0 66.9 76% NA NA 29.86 1010.5
2:53 am CDT NE 5.8 10.00 Overcast -- 75.0 66.9 76% NA NA 29.88 1011.1
1:53 am CDT N 6.9 10.00 Overcast -- 75.0 66.9 76% NA NA 29.89 1011.7

Regional Weather Observation


Haleyville, Posey Field Airport, AL (K1M4)

Fair
65.0 F

Corinth, MS (KCRX)

Fair
66.0 F

Columbia / Maury County, TN (KMRC)

Partly Cloudy
73.0 F

Decatur, Pryor Field, AL (KDCU)

Fair
69.0 F

Tupelo, Tupelo Regional Airport, MS (KTUP)

Fair
69.0 F

Jackson, McKellar-Sipes Regional Airport, TN (KMKL)

Fair
64.0 F